星链-1150 (STARLINK-1150 )

导读 | 星芒AI

STARLINK-1150 是 SpaceX 星链计划中的一颗低轨通信卫星,属于第 21 批部署的星链卫星群。该卫星于 2022 年 9 月发射,运行在约 550 公里的轨道高度,旨在为全球用户提供高速互联网服务。作为星链星座的一部分,STARLINK-1150 采用先进相控阵天线和激光通信技术,提升连接稳定性和数据传输效率。星链项目致力于构建覆盖全球的卫星互联网网络,尤其服务于偏远和网络基础设施薄弱地区。

基本信息
目录编号:
45067
目录名称:
STARLINK-1150
国际标识:
2020-006Z
轨道中心:
EARTH
卫星名称:
星链-1150
卫星全名:
星链-1150 (STARLINK-1150 )
卫星状态:
已陨落 最后检测时间 2025-10-06
发射日期:
2020-01-29 UTC
国别 :
美国 (US)
星等 :
--
轨道信息
数据来源 国际轨道数据
星历时间: 2025-10-06T08:49:41+0800
轨道信息已过期23天
半长轴: 6550.6km
偏心率: 0.0006947
轨道倾角: 53.029°
近地点辐角 241.417°
升交点赤经 175.623°
平近点角 118.618°
近地点: 167.914km
远地点: 177.016km
周期: 87.939分钟
每日圈数: 16.374997
详细信息
固有亮度:
5
最大亮度:
2.5
卫星平台:
Starlink V1.0
覆盖范围:
全球
运营商:
太空探索技术公司
运营商所在国:
美国
制造商(研发单位):
太空探索技术公司
制造商所在国:
美国
使用方式:
暂无
卫星简介
星链(Starlink)计划是由太空探索技术公司(SpaceX)提出的一个巨型低轨卫星互联网星座项目,计划在2019年至2024年间在太空搭建由约1.2万颗卫星组成的“星链”网络,其中1584颗将部署在地球上空550千米处的近地轨道,并从2020年开始工作。该卫星仍在工作。